This demonstration page uses our WeatherBlox Daily Observations layout. Learn more.

Left ArrowRight Arrow

Hourly Observations for September 20, 2017

Temp ( °F °C ) Dew Point ( °F °C ) Humidity (%) Winds ( mph kmh ) Pressure ( in mb ) Visibility ( mi km ) Precip ( " mm )
12:51 am 00:51 Clear 77 25 36 2.2 23 23 N N/A 29.75 1007 10 16 N/A
1:51 am 01:51 Clear 73 22.8 38 3.3 28 28 NNW 6 9 29.75 1007 10 16 N/A
2:51 am 02:51 Clear 65 18.3 38 3.3 37 37 N N/A 29.77 1008 10 16 N/A
3:51 am 03:51 Clear 65 18.3 37 2.8 36 36 SSE 3 6 29.79 1009 10 16 N/A
4:51 am 04:51 Clear 62 16.7 37 2.8 40 40 ENE 5 7 29.80 1009 10 16 N/A
5:51 am 05:51 Clear 60 15.6 37 2.8 42 42 SE 3 6 29.83 1010 10 16 N/A
6:51 am 06:51 Sunny 64 17.8 38 3.3 38 38 E 3 6 29.84 1011 10 16 N/A
7:51 am 07:51 Sunny 73 22.8 40 4.4 30 30 SE 3 6 29.84 1011 10 16 N/A
8:51 am 08:51 Sunny 80 26.7 40 4.4 24 24 N N/A 29.84 1010 10 16 N/A
9:51 am 09:51 Sunny 83 28.3 40 4.4 22 22 ESE 7 11 29.84 1010 10 16 N/A
10:51 am 10:51 Sunny 86 30 46 7.8 25 25 ENE 6 9 29.82 1010 10 16 N/A
11:51 am 11:51 Sunny 89 31.7 43 6.1 20 20 undefined N/A 29.78 1009 10 16 N/A
12:51 pm 12:51 Sunny 88 31.1 41 5 19 19 WSW 5 7 29.76 1008 10 16 N/A
1:51 pm 13:51 Sunny 92 33.3 42 5.6 18 18 VRB 3 6 29.73 1007 10 16 N/A
2:51 pm 14:51 Sunny 93 33.9 40 4.4 16 16 VRB 5 7 29.71 1006 10 16 N/A
3:51 pm 15:51 Sunny 93 33.9 39 3.9 15 15 SSW 6 9 29.69 1006 10 16 N/A
4:51 pm 16:51 Sunny 93 33.9 41 5 16 16 W 7 11 29.69 1005 10 16 N/A
5:51 pm 17:51 Sunny 91 32.8 41 5 17 17 W 6 9 29.69 1005 10 16 N/A
6:51 pm 18:51 Clear 86 30 45 7.2 24 24 WNW 7 11 29.70 1006 10 16 N/A
7:51 pm 19:51 Clear 84 28.9 46 7.8 27 27 NW 9 15 29.69 1006 10 16 N/A
8:51 pm 20:51 Clear 82 27.8 45 7.2 27 27 NNW 6 9 29.70 1006 10 16 N/A
9:51 pm 21:51 Clear 80 26.7 44 6.7 28 28 NW 8 13 29.72 1007 10 16 N/A
10:51 pm 22:51 Clear 79 26.1 33 0.6 19 19 NNW 8 13 29.72 1007 10 16 N/A
11:51 pm 23:51 Clear 75 23.9 29 -1.7 18 18 N 8 13 29.72 1007 10 16 N/A

Powered by AerisWeather